Portland, OR

2:13 PM PDT on September 27, 2016 (GMT -0700)
Portland International

Weather History for KPDX - November, 2011

Change the Weather History Date:

Friday, November 18, 2011

  Actual Average Record
Temperature  
Mean Temperature 41 °F 46 °F  
Max Temperature 45 °F 52 °F 61 °F (2003)
Min Temperature 37 °F 40 °F 24 °F (2000)
Degree Days  
Heating Degree Days 24 19  
Month to date heating degree days 358 302  
Since 1 July heating degree days 695 720  
Cooling Degree Days 0 0  
Month to date cooling degree days 0 0  
Year to date cooling degree days 362 424  
Moisture  
Dew Point 36 °F    
Average Humidity 78    
Maximum Humidity 86    
Minimum Humidity 70    
Precipitation  
Precipitation 0.10 in 0.20 in 1.99 in (1946)
Month to date precipitation 2.17 3.21  
Year to date precipitation 30.19 28.12  
Snow  
Snow 0.00 in - - ()
Month to date snowfall 0.0  
Snow Depth 0.00 in    
Sea Level Pressure  
Sea Level Pressure 29.70 in    
Wind  
Wind Speed 8 mph (SSW)    
Max Wind Speed 20 mph    
Max Gust Speed 24 mph    
Visibility 10 miles    
Events Rain    
T = Trace of Precipitation, MM = Missing Value Source: NWS Daily Summary

Daily Weather History Graph

Daily Weather History Graph

Search for Another Location

Airport or City:

Trip Planner

Search our weather history database for the weather conditions in past years. The results will help you decide how hot, cold, wet, or windy it might be!

Date:

Astronomy

Nov. 18, 2011 Rise Set
Actual Time 7:13 AM PST 4:37 PM PST
Civil Twilight 6:41 AM PST 5:09 PM PST
Nautical Twilight 6:05 AM PST 5:45 PM PST
Astronomical Twilight 5:29 AM PST 6:20 PM PST
Moon No Moon Rise 12:46 PM PST (11/18)
Length of Visible Light 10h 28m
Length of Day
9h 23m
Waning Gibbous, 48% of the Moon is Illuminated
Nov 18
Waning Gibbous
Nov 24
New
Dec 2
First Quarter
Dec 10
Full
Dec 17
Last Quarter

Hourly Weather History & Observations

Time (PST) Temp. Windchill Dew Point Humidity Pressure Visibility Wind Dir Wind Speed Gust Speed Precip Events Conditions
12:53 AM 41.0 °F 35.8 °F 37.9 °F 89% 29.67 in 10.0 mi South 8.1 mph - 0.00 in   Mostly Cloudy
1:53 AM 41.0 °F 34.7 °F 37.0 °F 86% 29.66 in 10.0 mi South 10.4 mph - 0.01 in Rain Light Rain
2:06 AM 41.0 °F 35.8 °F 37.4 °F 87% 29.67 in 10.0 mi SSW 8.1 mph - 0.00 in Rain Light Rain
2:53 AM 39.0 °F 34.8 °F 35.1 °F 86% 29.67 in 10.0 mi WSW 5.8 mph - 0.03 in Rain Light Rain
3:09 AM 37.4 °F 31.4 °F 35.6 °F 93% 29.67 in 10.0 mi SSW 8.1 mph - 0.00 in   Mostly Cloudy
3:53 AM 37.9 °F 33.5 °F 35.1 °F 89% 29.67 in 10.0 mi SW 5.8 mph - 0.00 in   Overcast
4:29 AM 39.2 °F 37.0 °F 35.6 °F 87% 29.67 in 10.0 mi South 3.5 mph - 0.00 in Rain Light Rain
4:53 AM 37.9 °F 34.4 °F 35.1 °F 89% 29.65 in 10.0 mi SSE 4.6 mph - 0.00 in Rain Light Rain
5:18 AM 37.4 °F 32.1 °F 35.6 °F 93% 29.66 in 10.0 mi South 6.9 mph - 0.00 in   Overcast
5:40 AM 37.4 °F 32.8 °F 35.6 °F 93% 29.65 in 10.0 mi South 5.8 mph - 0.00 in   Overcast
5:53 AM 39.0 °F 36.8 °F 35.1 °F 86% 29.65 in 10.0 mi SSW 3.5 mph - 0.00 in   Mostly Cloudy
6:53 AM 39.0 °F 35.7 °F 36.0 °F 89% 29.65 in 10.0 mi South 4.6 mph - N/A   Overcast
7:53 AM 39.2 °F 33.6 °F 35.6 °F 87% 29.66 in 10.0 mi South 8.1 mph - N/A   Overcast
8:53 AM 39.0 °F 32.3 °F 35.1 °F 86% 29.68 in 8.0 mi South 10.4 mph - 0.01 in Rain Light Rain
9:53 AM 39.9 °F - 36.0 °F 86% 29.69 in 10.0 mi Calm Calm - 0.01 in Rain Light Rain
10:53 AM 41.0 °F 38.0 °F 36.0 °F 82% 29.69 in 10.0 mi SW 4.6 mph - 0.00 in   Overcast
11:00 AM 41.0 °F 37.1 °F 35.6 °F 81% 29.69 in 10.0 mi SW 5.8 mph - 0.00 in Rain Light Rain
11:53 AM 44.1 °F 38.6 °F 36.0 °F 73% 29.68 in 10.0 mi SSW 10.4 mph - 0.00 in   Mostly Cloudy
12:53 PM 42.8 °F 39.3 °F 35.6 °F 76% 29.69 in 7.0 mi West 5.8 mph - N/A Rain Light Rain
1:53 PM 44.1 °F 40.1 °F 36.0 °F 73% 29.69 in 10.0 mi SW 6.9 mph - 0.01 in   Mostly Cloudy
2:40 PM 44.6 °F 40.7 °F 33.8 °F 66% 29.70 in 10.0 mi SW 6.9 mph - N/A   Overcast
2:53 PM 43.0 °F 36.8 °F 36.0 °F 76% 29.70 in 10.0 mi South 11.5 mph - N/A   Overcast
3:53 PM 42.1 °F 35.7 °F 35.1 °F 76% 29.72 in 10.0 mi South 11.5 mph - N/A   Mostly Cloudy
4:53 PM 41.0 °F 34.3 °F 36.0 °F 82% 29.73 in 10.0 mi South 11.5 mph - N/A   Mostly Cloudy
5:53 PM 41.0 °F 35.2 °F 36.0 °F 82% 29.73 in 10.0 mi South 9.2 mph - 0.00 in Rain Light Rain
6:15 PM 41.0 °F 35.8 °F 35.6 °F 81% 29.73 in 10.0 mi South 8.1 mph - 0.00 in   Overcast
6:53 PM 39.9 °F 35.1 °F 36.0 °F 86% 29.74 in 10.0 mi SSW 6.9 mph - 0.00 in Rain Light Rain
7:53 PM 37.0 °F 33.3 °F 34.0 °F 89% 29.75 in 10.0 mi South 4.6 mph - 0.01 in   Overcast
8:28 PM 37.4 °F - 35.6 °F 93% 29.76 in 10.0 mi Calm Calm - 0.01 in Rain Light Rain
8:53 PM 37.9 °F 35.5 °F 35.1 °F 89% 29.76 in 10.0 mi East 3.5 mph - 0.01 in Rain Light Rain
9:53 PM 39.9 °F 33.9 °F 36.0 °F 86% 29.77 in 10.0 mi South 9.2 mph - 0.00 in   Overcast
10:03 PM 39.2 °F 33.6 °F 35.6 °F 87% 29.77 in 10.0 mi South 8.1 mph - N/A   Overcast
10:53 PM 39.9 °F 32.5 °F 36.0 °F 86% 29.77 in 10.0 mi SSW 12.7 mph - N/A   Overcast
11:13 PM 39.2 °F 31.2 °F 35.6 °F 87% 29.77 in 10.0 mi SSW 13.8 mph - N/A   Overcast
11:38 PM 39.2 °F 32.0 °F 35.6 °F 87% 29.77 in 10.0 mi SSW 11.5 mph - N/A   Overcast
11:53 PM 39.9 °F 33.4 °F 36.0 °F 86% 29.77 in 10.0 mi SSW 10.4 mph - N/A   Overcast